FREGAT DEB, 45840

Orbit data source: Space-Track

FREGAT DEB, 45840 is space debris in LEO originally from a launch on Mon, 18 Jul 2011 UTC launched from the Tyuratam Missile And Space Complex (TTMTR). Debris objects in space refer to the collection of defunct objects orbiting the Earth. Examples of debris include non-operational satellites, rocket bodies, and fragments generated from explosions, collisions, or faulty payload assembly.

Loading next visibility...
Identifier
45840, 2011-037CA
Orbit
LEO
Country
Flag of CISCIS
Related business
Manufacturer
Lavochkin
Mission
Spacecraft
Bus & Motor
Unknown
Mass
Unknown
Launch date (UTC)
2011-07-18 (14 years ago)
Launch vehicle
Unknown
Launch site
Tyuratam Missile And Space Complex (TTMTR)
Object type
Payload
Rocket body
Debris
Shape & HBR
Unknown shape, 0.1 m
Radar Cross Section
Small (<0.1 m²)

Expand to show TLE details & history
Last TLE update: 9 hours ago

TLE from 9 hours ago
0 FREGAT DEB
1 45840U 11037CA  25291.24206188  .00011076  00000-0  38677-2 0  9991
2 45840  51.5448 242.7200 1928034 135.8540 241.3443 11.09578744209604
Epoch: 2025-10-18T05:48Z
TLE epoch observation values (Epoch: 2025-10-18T05:48:34.146Z)
Latitude
-0.00002°
Longitude
128.60181°
Altitude
3,108.664 km
Speed
6.092 km/s
True Right ascension
16h 10m 52s
True Declination
0° 00' 00"
Sunlit
Object was in daylight at epoch
Visualization orbit readout
Latitude
Unknown
Longitude
Unknown
Altitude
Unknown
Speed
Unknown
Apparent Right ascension
Unknown
Apparent Declination
Unknown
Sunlit
N/A
Visualization observer readout
Local Sidereal Time
09:30:46
Azimuth
Unknown
Elevation
Unknown
Doppler factor
Unknown
Orbital elements
Apogee altitude
3,750.587 km
Perigee altitude
476.196 km
Semi-major axis
8,491.528 km
Eccentricity
0.1928
Inclination
51.5448°
RAAN
242.72°
Arg. of periapsis
135.854°
True anomaly
224.22561°
Mean anomaly
241.3443°
Eccentric anomaly
232.57184°
Mean motion
2.77373 °/min
Orbital period
129.79 mins
BSTAR
0.0038677
Loading maneuver chart data...
Computing Atmospheric mass density...
Loading historical data...
Loading historical data...
Loading historical data...
Loading historical data...
Loading historical data...
Loading historical data...
Loading historical data...

Documentation

Showing up to 5 results
|